Tracking 27422 objects as of 31-May-2023
HD Live streaming from Space Station
objects crossing your sky now

STARLINK-4453

Track STARLINK-4453 now!
10-day predictions
STARLINK-4453 is classified as:


NORAD ID: 53497
Int'l Code: 2022-099AJ
Perigee: 568.0 km
Apogee: 572.4 km
Inclination: 97.7 °
Period: 95.9 minutes
Semi major axis: 6941 km
RCS: Unknown
Launch date: August 12, 2022
Source: United States (US)
Launch site: AIR FORCE WESTERN TEST RANGE (AFWTR)
Your satellite tracking list
Your tracking list is empty




NASA's NSSDC Master Catalog

Two Line Element Set (TLE):
1 53497U 22099AJ  23150.29524167  .00000097  00000-0  12125-4 0  9998
2 53497  97.6581 271.6298 0003168 180.4918 179.6303 15.01258207 43793
Source of the keplerian elements: AFSPC